Location: Buckeye Ditch
(40.9104°N, 122.9517°W)
Time: 01:58:03
(UTC+00:00)

SR - Pass Details

Date: 27 May 2025
Orbit: 570 x 855 km, 66.7° (Epoch: 11 June)

Event Time Altitude Azimuth Distance (km) Brightness Sun altitude
Exits shadow 06:50:09 36° 228° (SW) 1,319 ? -25.1°
Maximum altitude 06:52:32 70° 301° (WNW) 911 ? -25.3°
Drops below altitude 10° 06:58:17 10° 26° (NNE) 2,472 ? -25.6°
Sets 07:00:45 0° 28° (NNE) 3,390 ? -25.7°
